Location: The Saddle
(36.8333°N, 80.3417°W)
Time: 20:25:04
(UTC-04:00)

SRMSAT - Visible Passes

Search period start: 18 April 2024 00:00
Search period end: 28 April 2024 00:00
Orbit: 847 x 864 km, 20.0° (Epoch: 18 April)

Date Brightness Start Highest point End Pass type
(mag) Time Alt. Az. Time Alt. Az. Time Alt. Az.
18 Apr ? 04:56:38 14° S 04:56:38 14° S 04:58:56 10° SSE visible
19 Apr ? 04:44:08 12° SSE 04:44:08 12° SSE 04:45:16 10° SSE visible
27 Apr ? 21:14:56 10° S 21:15:31 10° SSE 21:16:07 10° SSE visible
